Regional Weather Roundup
Issued by NWS

Home | Current Version | Previous Version | Text Only | Print | Product List | Glossary On
Versions: 1 2 3 4 5 6 7 8 9 10 11 12 13 14 15 16 17 18 19 20 21 22 23 24 25 26 27 28 29 30 31 32 33 34 35 36 37 38 39 40 41 42 43 44 45 46 47 48 49 50
000
ASUS43 KMKX 242121
RWRWI

WISCONSIN REGIONAL WEATHER ROUNDUP
NATIONAL WEATHER SERVICE MILWAUKEE/SULLIVAN WI
400 PM CDT MON JUL 24 2017

NOTE: "FAIR" INDICATES FEW OR NO CLOUDS BELOW 12,000 FEET WITH NO
SIGNIFICANT WEATHER AND/OR OBSTRUCTIONS TO VISIBILITY.

WIZ001-002-006>008-014>016-023>028-242200-
NORTHWEST WISCONSIN

CITY           SKY/WX    TMP DP  RH WIND       PRES   REMARKS
SUPERIOR ARPT  NOT AVBL
ASHLAND        SUNNY     74  60  61 N10       30.06S
HAYWARD        SUNNY     74  53  48 VRB3      30.07S
SIREN          SUNNY     77  55  46 SE7       30.05F
CUMBERLAND     SUNNY     72  54  53 SE8       30.07F
RICE LAKE      SUNNY     75  55  48 E5        30.08F
CHETEK         SUNNY     74  57  55 S7        30.07S
LADYSMITH      SUNNY     76  55  48 SE6       30.09S
EAU CLAIRE     SUNNY     75  57  53 SE10      30.06S
MENOMONIE      SUNNY     75  57  53 E6        30.06S
NEW RICHMOND   CLOUDY    76  57  52 SE9       30.05F
OSCEOLA        CLOUDY    77  59  53 SE6       30.06F
$$

WIZ003>005-009-010-017-018-242200-
NORTH CENTRAL WISCONSIN

CITY           SKY/WX    TMP DP  RH WIND       PRES   REMARKS
MANITOWISH WTR SUNNY     75  49  41 E7        30.09S
ARBOR VITAE    SUNNY     77  54  44 S7        30.09S
WOODRUFF       SUNNY     77  54  44 S7        30.09S
RHINELANDER    SUNNY     77  51  40 VRB3      30.10S
EAGLE RIVER    SUNNY     75  45  33 CALM      30.09S
LAND O LAKES   SUNNY     77  47  34 SE7       30.10S
PHILLIPS       SUNNY     75  55  49 SE7       30.08S
TOMAHAWK         N/A     75  52  43 CALM      30.09S
MEDFORD        MOSUNNY   73  54  52 S6        30.09S
MERRILL        SUNNY     76  55  49 S5        30.09S
$$

WIZ029-030-035-036-043>047-242200-
CENTRAL WISCONSIN

CITY           SKY/WX    TMP DP  RH WIND       PRES   REMARKS
WAUSAU         MOSUNNY   76  52  43 VRB6      30.07S
MOSINEE        MOSUNNY   75  54  46 SE6       30.10S
MARSHFIELD     MOSUNNY   75  55  49 VRB6      30.08S
STEVENS POINT  SUNNY     73  53  49 SE6       30.09S
WAUPACA        SUNNY     78  52  40 SE7       30.09R
WAUTOMA        MOSUNNY   75  56  51 VRB7      30.08S
WISC RAPIDS    MOSUNNY   77  56  48 SE9       30.09S
CAMP DOUGLAS   MOSUNNY   75  59  57 S5        30.07S
$$

WIZ011>013-019>022-031-037>040-048>050-242200-
NORTHEAST WISCONSIN

CITY           SKY/WX    TMP DP  RH WIND       PRES   REMARKS
ANTIGO         SUNNY     74  54  49 SE7       30.10S
SHAWANO        MOSUNNY   77  55  45 SE3       30.08S
OCONTO         SUNNY     73  53  49 SE6       30.08F
STURGEON BAY     N/A     72  55  55 VRB6      30.09S
GREEN BAY      SUNNY     74  58  57 VRB5      30.08F
MANITOWOC      SUNNY     70  48  45 NE8       30.09F
APPLETON       MOSUNNY   73  52  46 CALM      30.08S
CLINTONVILLE   SUNNY    N/A N/A N/A E6        30.09R
OSHKOSH        SUNNY     73  55  53 CALM      30.07F
$$

WIZ032>034-041-042-053>061-242200-
SOUTHWEST WISCONSIN

CITY           SKY/WX    TMP DP  RH WIND       PRES   REMARKS
LA CROSSE      MOSUNNY   76  59  55 CALM      30.06S
SPARTA         SUNNY     74  58  56 CALM      30.07F
VIROQUA        PTSUNNY   73  61  66 CALM      30.08S
BOSCOBEL       PTSUNNY   74  59  59 NE5       30.07S
PRAIRIE DU CHI CLOUDY    74  58  56 E6        30.05S
PLATTEVILLE    PTSUNNY   73  62  68 E5        30.07S
$$

WIZ056-057-062-063-064-067-068-242200-
SOUTH CENTRAL WISCONSIN

CITY           SKY/WX    TMP DP  RH WIND       PRES   REMARKS
REEDSBURG      PTSUNNY   75  59  58 SE3       30.07S
BARABOO/DELLS  MOSUNNY   76  54  45 SE6       30.07F
LONE ROCK      MOSUNNY   73  58  59 SE6       30.07S
MINERAL POINT  PTSUNNY   73  63  68 E5        30.08F
MADISON        PTSUNNY   73  57  57 E5        30.06F
MIDDLETON      MOSUNNY   76  57  50 CALM      30.08S
WATERTOWN      MOSUNNY   75  58  56 E7        30.06S
MONROE         CLOUDY    72  57  60 NE5       30.07S
JANESVILLE     PTSUNNY   75  57  53 E9        30.06S
$$

WIZ051-052-058>065-066-070>072-242200-
SOUTHEAST WISCONSIN

CITY           SKY/WX    TMP DP  RH WIND       PRES   REMARKS
MILWAUKEE      MOSUNNY   70  59  68 NE13      30.08S
WAUKESHA       SUNNY     70  54  56 NE8       30.09F
MILWAUKEE/TIMM MOSUNNY   70  52  52 NE7       30.09S
RACINE         MOSUNNY   69  61  75 N12       30.09F
KENOSHA        PTSUNNY   72  58  61 VRB7      30.07F
FOND DU LAC    SUNNY     75  52  44 NE9       30.08S
SHEBOYGAN      SUNNY     71  55  56 NE10      30.09S
WEST BEND      SUNNY     72  52  49 NE10      30.08S
JUNEAU         SUNNY     73  53  49 E7        30.09S
$$

LSZ147-162-242200-
LAKE SUPERIOR

STATION/POSITION TIME  TEMP    WIND        PRES    WAVE
                       AIR SEA DIR/SP/G            HT/PER
                 (UTC) (F)     (DEG/KT/KT) (MB)    (FT/S)
W MID LAKE BUOY  2050   57 54     CALM     1018.7S   0
DEVILS ISLAND    2100   60      80/  5/  5 1018.4F
SAXON HARBOR     2040   65      30/  9/ 10 1017.9S
$$

LMZ867-665-643>646-242200-
LAKE MICHIGAN

STATION/POSITION TIME  TEMP    WIND        PRES    WAVE
                       AIR SEA DIR/SP/G            HT/PER
                 (UTC) (F)     (DEG/KT/KT) (MB)    (FT/S)
CHAMBERS ISLAND  2040   70      60/  8/  9 1017.9S
S GREEN BAY BUOY 2100   70 72   50/  6/  8 1018.4
N MID LAKE BUOY  2050   67 67  110/  6/  8 1018.8F   1/ 4
NORTHPORT PIER   2040   68     130/  6/  7 1018.3S
KEWAUNEE LAKESHO 2054   69      40/  5/  8 1018.2F
SHEBOYGAN LAKESH 2100   66      10/ 14/ 15 1018.5S
PORT WASHINGTON  2030   70      50/ 12/ 14 1019.3F
ATWATER BUOY     2009   66 68   20/ 14/ 16 1018.7S
MILWAUKEE LAKESH 2100   65      30/ 14/ 15   N/A
S MID LAKE BUOY  2050   67 70   10/ 14/ 16 1017.5F   4/ 6
KENOSHA   LAKESH 2100   66      30/ 15/ 17 1017.9
$$

TC  - TEMPERATURE IN CELSIUS
VSB - VISIBILITY IN STATUTE MILES
WCI - WIND CHILL INDEX
HX  - HEAT INDEX





USA.gov is the U.S. government's official web portal to all federal, state and local government web resources and services.